EXS1354 LGSR-EGBB

Flight info

Callsign EXS1354
Flight time N/A
Altitude 34000
Route MADEX UL53 AKORO UL617 SKP DCT AGISA DCT TSL UL617 MAKED DCT LONTA UL608 DOLEV DCT YUYUH DCT PODOB DCT KEB DCT BOSNA DCT MARIL DCT KUSIB DCT GORPA DCT DOL DCT NIPEL/N0440F360 DCT NANIT DCT ERKIR DCT BABEG DCT LIRSU DCT ARCKY DCT SPI DCT BUB DCT DENUT L610 HEMEL
Aircraft B738/M-SDE2E3FGHIRWXY/LB1

Departure

Time 2026-05-01 13:30
Airport Santorini International Airport (LGSR)

Arrival

Time N/A
Airport Birmingham Airport (EGBB)
Time Latitude Longitude Altitude Speed Heading
2026-05-01 12:45 36.40387 25.47366 116 ft 0 kts 250°
2026-05-01 13:21 36.40395 25.47388 113 ft 4 kts 236°
2026-05-01 13:22 36.40413 25.47410 114 ft 4 kts 195°
2026-05-01 13:22 36.40432 25.47410 115 ft 0 kts 159°
2026-05-01 13:24 36.40431 25.47410 115 ft 1 kts 159°
2026-05-01 13:25 36.40426 25.47475 115 ft 7 kts 85°
2026-05-01 13:25 36.40398 25.47525 117 ft 9 kts 159°
2026-05-01 13:25 36.40320 25.47561 112 ft 15 kts 159°
2026-05-01 13:25 36.40200 25.47617 111 ft 21 kts 160°
2026-05-01 13:26 36.40058 25.47686 107 ft 23 kts 159°
2026-05-01 13:26 36.39895 25.47761 101 ft 26 kts 160°
2026-05-01 13:26 36.39724 25.47841 91 ft 29 kts 159°
2026-05-01 13:26 36.39537 25.47929 82 ft 25 kts 159°
2026-05-01 13:27 36.39370 25.48008 70 ft 24 kts 159°
2026-05-01 13:27 36.39216 25.48081 66 ft 23 kts 160°
2026-05-01 13:27 36.39006 25.48185 61 ft 8 kts 130°
2026-05-01 13:28 36.39024 25.48280 60 ft 7 kts 69°
2026-05-01 13:28 36.39047 25.48329 57 ft 5 kts 18°
2026-05-01 13:29 36.39170 25.48268 65 ft 52 kts 339°
2026-05-01 13:29 36.40657 25.47567 328 ft 153 kts 339°
2026-05-01 13:30 36.45211 25.46602 2879 ft 208 kts 347°
2026-05-01 13:31 36.48361 25.45557 3873 ft 251 kts 345°
2026-05-01 13:31 36.53541 25.43804 6525 ft 262 kts 341°
2026-05-01 13:32 36.57130 25.42583 8279 ft 271 kts 340°
2026-05-01 13:33 36.62701 25.40681 10705 ft 300 kts 339°
2026-05-01 13:33 36.66342 25.38031 12051 ft 308 kts 306°
2026-05-01 13:34 36.68842 25.33672 14056 ft 312 kts 301°
2026-05-01 13:34 36.71336 25.29142 15883 ft 321 kts 300°
2026-05-01 13:35 36.74213 25.24799 17756 ft 334 kts 311°
2026-05-01 13:35 36.75941 25.22824 18611 ft 338 kts 312°
2026-05-01 13:35 36.79450 25.18851 20268 ft 342 kts 312°
2026-05-01 13:36 36.81217 25.16840 21104 ft 345 kts 311°
2026-05-01 13:36 36.82994 25.14809 21840 ft 349 kts 311°
2026-05-01 13:36 36.86577 25.10694 23408 ft 354 kts 311°
2026-05-01 13:37 36.88394 25.08600 24089 ft 357 kts 311°
2026-05-01 13:37 36.89628 25.07177 24535 ft 357 kts 311°
2026-05-01 13:37 36.92048 25.04384 25442 ft 358 kts 311°
2026-05-01 13:37 36.93877 25.02270 26102 ft 359 kts 310°
2026-05-01 13:38 36.97546 24.98024 27428 ft 360 kts 310°
2026-05-01 13:38 36.99395 24.95881 28048 ft 361 kts 310°
2026-05-01 13:38 37.01216 24.93768 28620 ft 363 kts 309°
2026-05-01 13:39 37.03093 24.91589 29190 ft 364 kts 309°
2026-05-01 13:39 37.04935 24.89450 29730 ft 366 kts 309°
2026-05-01 13:39 37.06804 24.87277 30243 ft 368 kts 309°
2026-05-01 13:39 37.08684 24.85090 30660 ft 370 kts 309°
2026-05-01 13:40 37.10581 24.82881 31072 ft 373 kts 309°
2026-05-01 13:40 37.12489 24.80658 31447 ft 376 kts 309°
2026-05-01 13:40 37.14402 24.78429 31895 ft 376 kts 309°
2026-05-01 13:40 37.16317 24.76198 32360 ft 376 kts 309°
2026-05-01 13:41 37.18229 24.73970 32911 ft 373 kts 309°
2026-05-01 13:41 37.20123 24.71761 33463 ft 371 kts 309°
2026-05-01 13:41 37.22014 24.69552 33967 ft 370 kts 308°
2026-05-01 13:41 37.23900 24.67346 34366 ft 370 kts 308°
2026-05-01 13:42 37.25762 24.65166 34727 ft 370 kts 308°
2026-05-01 13:42 37.27644 24.62960 35132 ft 370 kts 308°
2026-05-01 13:42 37.29530 24.60749 35529 ft 370 kts 308°
2026-05-01 13:42 37.31411 24.58541 35898 ft 370 kts 309°
2026-05-01 13:43 37.33290 24.56336 36261 ft 370 kts 309°
2026-05-01 13:43 37.35166 24.54132 36639 ft 369 kts 309°
2026-05-01 13:43 37.37040 24.51928 37002 ft 369 kts 309°
2026-05-01 13:43 37.38922 24.49715 37375 ft 369 kts 309°
2026-05-01 13:44 37.40796 24.47507 37763 ft 370 kts 309°
2026-05-01 13:44 37.42676 24.45291 38028 ft 371 kts 309°
2026-05-01 13:44 37.44561 24.43068 38403 ft 371 kts 309°
2026-05-01 13:44 37.45805 24.41602 38658 ft 370 kts 309°
2026-05-01 13:45 37.48293 24.38665 39021 ft 370 kts 309°
2026-05-01 13:45 37.50178 24.36436 39245 ft 372 kts 309°
2026-05-01 13:45 37.52065 24.34205 39456 ft 373 kts 309°
2026-05-01 13:45 37.54024 24.32036 39650 ft 380 kts 315°
2026-05-01 13:46 37.55485 24.30783 39784 ft 385 kts 320°
2026-05-01 13:46 37.57848 24.29124 40005 ft 393 kts 325°
2026-05-01 13:46 37.60433 24.27840 40095 ft 405 kts 331°
2026-05-01 13:47 37.65848 24.25619 40122 ft 410 kts 333°
2026-05-01 13:47 37.71247 24.23462 40141 ft 404 kts 332°
2026-05-01 13:48 37.76591 24.21290 40132 ft 402 kts 332°
2026-05-01 13:48 37.81897 24.19104 40149 ft 400 kts 332°
2026-05-01 13:49 37.87157 24.16925 40151 ft 400 kts 332°
2026-05-01 13:49 37.92448 24.14728 40167 ft 400 kts 332°
2026-05-01 13:50 37.97750 24.12524 40156 ft 401 kts 332°
2026-05-01 13:50 38.03059 24.10314 40158 ft 402 kts 332°
2026-05-01 13:51 38.08402 24.08087 40146 ft 404 kts 332°
2026-05-01 13:51 38.13753 24.05854 40143 ft 405 kts 333°
2026-05-01 13:52 38.19125 24.03608 40161 ft 407 kts 333°
2026-05-01 13:52 38.24490 24.01362 40149 ft 408 kts 333°
2026-05-01 13:53 38.29894 23.99097 40154 ft 409 kts 333°
2026-05-01 13:53 38.38034 23.95677 40193 ft 411 kts 333°
2026-05-01 13:54 38.43482 23.93384 40173 ft 413 kts 333°
2026-05-01 13:54 38.48946 23.91080 40163 ft 414 kts 333°
2026-05-01 13:55 38.54417 23.88771 40165 ft 414 kts 333°
2026-05-01 13:55 38.59858 23.86471 40168 ft 414 kts 333°
2026-05-01 13:56 38.65336 23.84151 40174 ft 412 kts 333°
2026-05-01 13:56 38.70771 23.81846 40183 ft 411 kts 333°
2026-05-01 13:57 38.76198 23.79539 40170 ft 410 kts 333°
2026-05-01 13:57 38.81577 23.77249 40177 ft 410 kts 333°
2026-05-01 13:58 38.86990 23.74940 40194 ft 411 kts 333°
2026-05-01 13:58 38.92422 23.72619 40194 ft 411 kts 334°
2026-05-01 13:59 38.97860 23.70293 40200 ft 412 kts 334°
2026-05-01 13:59 39.03310 23.67958 40203 ft 413 kts 334°
2026-05-01 14:00 39.08769 23.65615 40230 ft 414 kts 334°
2026-05-01 14:00 39.14239 23.63263 40216 ft 415 kts 334°
2026-05-01 14:01 39.19684 23.60898 40214 ft 415 kts 333°
2026-05-01 14:01 39.25102 23.58298 40215 ft 415 kts 332°
2026-05-01 14:02 39.30502 23.55645 40185 ft 415 kts 332°
2026-05-01 14:02 39.35912 23.53007 40192 ft 416 kts 333°
2026-05-01 14:03 39.41307 23.50390 40186 ft 416 kts 333°
2026-05-01 14:03 39.46732 23.47759 40191 ft 416 kts 333°
2026-05-01 14:04 39.52153 23.45124 40190 ft 416 kts 333°
2026-05-01 14:04 39.57579 23.42482 40196 ft 416 kts 333°
2026-05-01 14:05 39.63005 23.39835 40194 ft 416 kts 333°
2026-05-01 14:05 39.68438 23.37181 40190 ft 416 kts 333°
2026-05-01 14:06 39.73857 23.34530 40193 ft 416 kts 333°
2026-05-01 14:06 39.79237 23.31903 40217 ft 416 kts 334°
2026-05-01 14:07 39.84666 23.29251 40198 ft 417 kts 334°
2026-05-01 14:08 39.92813 23.25262 40193 ft 417 kts 334°
2026-05-01 14:08 39.98249 23.22593 40197 ft 417 kts 334°
2026-05-01 14:09 40.03689 23.19918 40205 ft 418 kts 334°
2026-05-01 14:09 40.09136 23.17234 40201 ft 418 kts 334°
2026-05-01 14:10 40.14553 23.14561 40201 ft 419 kts 334°
2026-05-01 14:10 40.20008 23.11865 40210 ft 419 kts 334°
2026-05-01 14:11 40.25455 23.09168 40240 ft 419 kts 334°
2026-05-01 14:11 40.33649 23.05101 40236 ft 419 kts 334°
2026-05-01 14:12 40.39102 23.02389 40239 ft 420 kts 334°
2026-05-01 14:12 40.44571 22.99665 40233 ft 420 kts 334°
2026-05-01 14:13 40.48943 22.97020 40245 ft 414 kts 328°
2026-05-01 14:13 40.54866 22.92800 40240 ft 413 kts 327°
2026-05-01 14:14 40.59922 22.89188 40234 ft 413 kts 327°
2026-05-01 14:14 40.64986 22.85614 40238 ft 413 kts 327°
2026-05-01 14:15 40.70023 22.82073 40237 ft 413 kts 327°
2026-05-01 14:15 40.75097 22.78503 40237 ft 413 kts 328°
2026-05-01 14:16 40.80171 22.74927 40226 ft 413 kts 328°
2026-05-01 14:16 40.85244 22.71344 40219 ft 414 kts 328°
2026-05-01 14:17 40.90302 22.67766 40216 ft 414 kts 328°
2026-05-01 14:17 40.95379 22.64168 40234 ft 414 kts 328°
2026-05-01 14:18 41.00465 22.60557 40218 ft 414 kts 328°
2026-05-01 14:18 41.04699 22.57546 40219 ft 415 kts 328°
2026-05-01 14:19 41.10644 22.53312 40212 ft 415 kts 328°
2026-05-01 14:19 41.15400 22.49183 40220 ft 410 kts 318°
2026-05-01 14:20 41.22039 22.42013 40207 ft 410 kts 318°
2026-05-01 14:21 41.26469 22.37233 40208 ft 410 kts 318°
2026-05-01 14:21 41.30917 22.32455 40204 ft 410 kts 318°
2026-05-01 14:22 41.37574 22.25306 40217 ft 410 kts 318°
2026-05-01 14:22 41.42015 22.20527 40206 ft 411 kts 318°
2026-05-01 14:23 41.46431 22.15765 40214 ft 411 kts 318°
2026-05-01 14:23 41.50879 22.10961 40206 ft 412 kts 319°
2026-05-01 14:24 41.55330 22.06144 40208 ft 412 kts 319°
2026-05-01 14:24 41.59787 22.01312 40213 ft 412 kts 319°
2026-05-01 14:25 41.64244 21.96471 40215 ft 413 kts 318°
2026-05-01 14:25 41.68705 21.91616 40212 ft 413 kts 318°
2026-05-01 14:26 41.75377 21.84339 40222 ft 414 kts 319°
2026-05-01 14:27 41.79852 21.79448 40238 ft 414 kts 319°
2026-05-01 14:27 41.84315 21.74559 40234 ft 414 kts 319°
2026-05-01 14:28 41.91018 21.67201 40238 ft 415 kts 319°
2026-05-01 14:28 41.95485 21.62285 40248 ft 415 kts 319°
2026-05-01 14:29 41.99956 21.57356 40241 ft 416 kts 319°
2026-05-01 14:30 42.08876 21.47494 40239 ft 416 kts 319°
2026-05-01 14:31 42.15567 21.40045 40239 ft 415 kts 316°
2026-05-01 14:31 42.19429 21.34292 40243 ft 414 kts 309°
2026-05-01 14:32 42.23131 21.28335 40243 ft 415 kts 309°
2026-05-01 14:32 42.26830 21.22406 40251 ft 416 kts 309°
2026-05-01 14:33 42.29959 21.17414 40257 ft 416 kts 309°
2026-05-01 14:33 42.34312 21.10475 40253 ft 416 kts 309°
2026-05-01 14:34 42.37425 21.05506 40257 ft 417 kts 309°
2026-05-01 14:34 42.41170 20.99516 40265 ft 417 kts 309°
2026-05-01 14:35 42.44910 20.93521 40265 ft 417 kts 309°
2026-05-01 14:35 42.48656 20.87504 40275 ft 418 kts 310°
2026-05-01 14:36 42.52400 20.81479 40267 ft 418 kts 310°
2026-05-01 14:36 42.56152 20.75428 40254 ft 419 kts 310°
2026-05-01 14:37 42.59895 20.69378 40258 ft 419 kts 310°
2026-05-01 14:37 42.63643 20.63309 40251 ft 419 kts 310°
2026-05-01 14:38 42.67390 20.57228 40254 ft 419 kts 310°
2026-05-01 14:38 42.71112 20.51175 40247 ft 419 kts 310°
2026-05-01 14:39 42.74850 20.45083 40229 ft 419 kts 310°
2026-05-01 14:39 42.78584 20.38985 40256 ft 418 kts 310°
2026-05-01 14:40 42.82175 20.33111 40243 ft 417 kts 310°
2026-05-01 14:40 42.85878 20.27042 40251 ft 417 kts 310°
2026-05-01 14:41 42.89579 20.20962 40243 ft 416 kts 310°
2026-05-01 14:41 42.93253 20.14915 40248 ft 416 kts 310°
2026-05-01 14:42 42.96947 20.08822 40244 ft 416 kts 311°
2026-05-01 14:42 43.00634 20.02727 40243 ft 416 kts 310°
2026-05-01 14:43 43.04324 19.96615 40248 ft 417 kts 310°
2026-05-01 14:43 43.08018 19.90483 40235 ft 418 kts 310°
2026-05-01 14:44 43.11685 19.84383 40244 ft 418 kts 310°
2026-05-01 14:44 43.17226 19.75141 40243 ft 418 kts 311°
2026-05-01 14:45 43.22769 19.65868 40245 ft 419 kts 311°
2026-05-01 14:46 43.26460 19.59676 40252 ft 418 kts 311°
2026-05-01 14:46 43.31961 19.50421 40242 ft 419 kts 310°
2026-05-01 14:47 43.35642 19.44210 40237 ft 419 kts 311°
2026-05-01 14:48 43.41167 19.34865 40245 ft 420 kts 311°
2026-05-01 14:48 43.46670 19.25524 40260 ft 421 kts 311°
2026-05-01 14:49 43.54071 19.12918 40246 ft 424 kts 311°
2026-05-01 14:50 43.61481 19.00244 40252 ft 424 kts 311°
2026-05-01 14:51 43.66996 18.90775 40238 ft 422 kts 311°
2026-05-01 14:52 43.72497 18.81297 40258 ft 420 kts 311°
2026-05-01 14:53 43.77969 18.71841 40259 ft 419 kts 311°
2026-05-01 14:53 43.81599 18.65550 40268 ft 417 kts 311°
2026-05-01 14:54 43.85216 18.59267 40266 ft 416 kts 311°
2026-05-01 14:54 43.88824 18.52987 40258 ft 416 kts 311°
2026-05-01 14:55 43.92414 18.46727 40274 ft 417 kts 311°
2026-05-01 14:55 43.96145 18.40552 40271 ft 418 kts 314°
2026-05-01 14:56 44.00035 18.34540 40268 ft 419 kts 315°
2026-05-01 14:56 44.03941 18.28493 40275 ft 421 kts 314°
2026-05-01 14:57 44.07834 18.22402 40280 ft 422 kts 314°
2026-05-01 14:57 44.13677 18.13200 40280 ft 424 kts 314°
2026-05-01 14:58 44.17554 18.07076 40270 ft 424 kts 315°
2026-05-01 14:58 44.21457 18.00899 40291 ft 424 kts 314°
2026-05-01 14:59 44.25357 17.94711 40287 ft 424 kts 314°
2026-05-01 14:59 44.29250 17.88522 40298 ft 424 kts 314°
2026-05-01 15:00 44.35048 17.79281 40295 ft 422 kts 315°
2026-05-01 15:01 44.38909 17.73095 40299 ft 421 kts 314°
2026-05-01 15:01 44.42736 17.66887 40299 ft 421 kts 314°
2026-05-01 15:02 44.46552 17.60676 40300 ft 420 kts 314°
2026-05-01 15:02 44.50361 17.54472 40298 ft 419 kts 314°
2026-05-01 15:03 44.54160 17.48273 40292 ft 418 kts 314°
2026-05-01 15:03 44.57921 17.42122 40303 ft 418 kts 314°
2026-05-01 15:04 44.61712 17.35911 40314 ft 419 kts 314°
2026-05-01 15:04 44.65500 17.29685 40307 ft 420 kts 314°
2026-05-01 15:05 44.69294 17.23423 40296 ft 421 kts 315°
2026-05-01 15:05 44.73087 17.17145 40310 ft 421 kts 315°
2026-05-01 15:06 44.76862 17.10886 40320 ft 422 kts 315°
2026-05-01 15:06 44.80664 17.04569 40317 ft 423 kts 314°
2026-05-01 15:07 44.84477 16.98220 40310 ft 424 kts 314°
2026-05-01 15:07 44.88290 16.91853 40305 ft 424 kts 315°
2026-05-01 15:08 44.92096 16.85486 40312 ft 424 kts 315°
2026-05-01 15:08 44.95901 16.79106 40311 ft 424 kts 315°
2026-05-01 15:09 44.99675 16.72765 40312 ft 424 kts 315°
2026-05-01 15:09 45.03467 16.66377 40297 ft 423 kts 315°
2026-05-01 15:10 45.07251 16.59988 40308 ft 422 kts 315°
2026-05-01 15:10 45.12907 16.50416 40314 ft 421 kts 315°
2026-05-01 15:11 45.18450 16.40853 40323 ft 420 kts 314°
2026-05-01 15:12 45.22109 16.34376 40310 ft 419 kts 314°
2026-05-01 15:12 45.27577 16.24691 40321 ft 419 kts 314°
2026-05-01 15:14 45.36663 16.08566 40325 ft 419 kts 314°
2026-05-01 15:14 45.42118 15.98841 40320 ft 419 kts 314°
2026-05-01 15:15 45.49377 15.85847 40319 ft 419 kts 314°
2026-05-01 15:16 45.56397 15.73227 40299 ft 420 kts 314°
2026-05-01 15:18 45.65432 15.56897 40310 ft 420 kts 314°
2026-05-01 15:19 45.72663 15.43759 40319 ft 420 kts 314°
2026-05-01 15:19 45.77463 15.35007 40313 ft 420 kts 314°
2026-05-01 15:20 45.82862 15.25126 40317 ft 420 kts 313°
2026-05-01 15:21 45.86463 15.18516 40304 ft 420 kts 313°
2026-05-01 15:21 45.90050 15.11914 40296 ft 419 kts 313°
2026-05-01 15:22 45.95415 15.02013 40302 ft 418 kts 313°
2026-05-01 15:22 45.98957 14.95457 40312 ft 417 kts 313°
2026-05-01 15:23 46.02516 14.88855 40307 ft 418 kts 313°
2026-05-01 15:23 46.06068 14.82248 40280 ft 417 kts 313°
2026-05-01 15:24 46.09622 14.75645 40299 ft 416 kts 313°
2026-05-01 15:24 46.13207 14.69115 40301 ft 415 kts 314°
2026-05-01 15:25 46.16777 14.62624 40295 ft 415 kts 313°
2026-05-01 15:25 46.20360 14.56081 40292 ft 416 kts 313°
2026-05-01 15:26 46.23946 14.49507 40272 ft 416 kts 313°
2026-05-01 15:26 46.27527 14.42924 40289 ft 417 kts 313°
2026-05-01 15:27 46.31108 14.36324 40294 ft 417 kts 313°
2026-05-01 15:28 46.36483 14.26390 40307 ft 418 kts 313°
2026-05-01 15:28 46.40082 14.19720 40305 ft 420 kts 313°
2026-05-01 15:29 46.45435 14.09764 40306 ft 416 kts 312°
2026-05-01 15:30 46.52590 13.96558 40312 ft 416 kts 313°
2026-05-01 15:31 46.63459 13.76825 40312 ft 418 kts 313°
2026-05-01 15:32 46.70707 13.63547 40303 ft 419 kts 313°
2026-05-01 15:34 46.81564 13.43535 40297 ft 418 kts 312°